WXM80 ListenWXM80 Stop

You find our weather info also at:

UK Metoffice

WeatherCloud

Weather Underground

Northeastern Weather Network

AWEKAS

Citizen Weather Observer Program (CWOP)

HAMweather, WeatherForYou, PWS Weather


Weather Underground History page Text

Daily Summary for July 7, 2017 Units:  Both    English   Metric
« Previous Day
Next Day »
Daily Weekly Monthly Yearly Custom
  High: Low: Average:
Temperature: 75.2 °F /  24 °C 68.3 °F /  20.2 °C 70.7 °F /  21.5 °C
Dew Point: 71.0 °F /  21.7 °C 63.0 °F /  17.2 °C 68.1 °F /  20.1 °C
Humidity: 97 % 80 % 92 %
Wind Speed: 8.3 mph /  13.4 km/h - 1.4 mph /  2.3 km/h
Wind Gust: 13.8 mph /  22.2 km/h - -
Wind:- - East
Pressure: 29.94 in /  1013.8 hPa 29.67 in /  1004.6 hPa -
Precipitation: 0.85 in /  21.59 mm    
Historical Graphs
 
 
Tabular Data for July 7, 2017
Time Temperature Dew Point Pressure Wind Wind Speed Wind Gust Humidity Rainfall Rate (Hourly)
00:01 69.5 °F /  20.8 °C 63.1 °F /  17.3 °C 29.94 in /  1013.8 hPa Calm     80 % 0.00 in /  0 mm
00:06 69.5 °F /  20.8 °C 63.1 °F /  17.3 °C 29.93 in /  1013.4 hPa Calm     80 % 0.00 in /  0 mm
00:11 69.4 °F /  20.8 °C 63.0 °F /  17.2 °C 29.93 in /  1013.4 hPa Calm     80 % 0.00 in /  0 mm
00:16 69.4 °F /  20.8 °C 63.0 °F /  17.2 °C 29.93 in /  1013.4 hPa Calm     80 % 0.00 in /  0 mm
00:21 69.4 °F /  20.8 °C 63.0 °F /  17.2 °C 29.93 in /  1013.4 hPa Calm     80 % 0.00 in /  0 mm
00:26 69.3 °F /  20.7 °C 63.2 °F /  17.3 °C 29.93 in /  1013.4 hPa Calm     81 % 0.00 in /  0 mm
00:31 69.3 °F /  20.7 °C 63.9 °F /  17.7 °C 29.92 in /  1013.1 hPa Calm     83 % 0.00 in /  0 mm
00:36 69.4 °F /  20.8 °C 64.4 °F /  18 °C 29.92 in /  1013.1 hPa Calm     84 % 0.00 in /  0 mm
00:41 69.4 °F /  20.8 °C 64.7 °F /  18.2 °C 29.92 in /  1013.1 hPa Calm     85 % 0.00 in /  0 mm
00:46 69.3 °F /  20.7 °C 64.6 °F /  18.1 °C 29.92 in /  1013.1 hPa Calm     85 % 0.00 in /  0 mm
00:51 69.3 °F /  20.7 °C 64.6 °F /  18.1 °C 29.92 in /  1013.1 hPa Calm     85 % 0.00 in /  0 mm
00:56 69.2 °F /  20.7 °C 64.5 °F /  18.1 °C 29.92 in /  1013.1 hPa Calm     85 % 0.00 in /  0 mm
01:01 69.2 °F /  20.7 °C 64.8 °F /  18.2 °C 29.92 in /  1013.1 hPa Calm     86 % 0.00 in /  0 mm
01:06 69.2 °F /  20.7 °C 65.2 °F /  18.4 °C 29.92 in /  1013.1 hPa Calm     87 % 0.00 in /  0 mm
01:11 69.3 °F /  20.7 °C 65.6 °F /  18.7 °C 29.92 in /  1013.1 hPa Calm     88 % 0.00 in /  0 mm
01:16 69.3 °F /  20.7 °C 65.6 °F /  18.7 °C 29.92 in /  1013.1 hPa Calm     88 % 0.00 in /  0 mm
01:21 69.2 °F /  20.7 °C 65.5 °F /  18.6 °C 29.92 in /  1013.1 hPa Calm     88 % 0.00 in /  0 mm
01:26 69.2 °F /  20.7 °C 65.5 °F /  18.6 °C 29.92 in /  1013.1 hPa Calm     88 % 0.00 in /  0 mm
01:31 69.2 °F /  20.7 °C 65.5 °F /  18.6 °C 29.91 in /  1012.8 hPa Calm   1.2 mph /  1.9 km/h 88 % 0.00 in /  0 mm
01:36 69.2 °F /  20.7 °C 65.8 °F /  18.8 °C 29.91 in /  1012.8 hPa Calm     89 % 0.00 in /  0 mm
01:41 69.2 °F /  20.7 °C 65.8 °F /  18.8 °C 29.91 in /  1012.8 hPa Calm     89 % 0.00 in /  0 mm
01:44 69.3 °F /  20.7 °C 66.2 °F /  19 °C 29.90 in /  1012.4 hPa Calm     90 % 0.00 in /  0 mm
01:49 69.3 °F /  20.7 °C 66.2 °F /  19 °C 29.90 in /  1012.4 hPa Calm   1.2 mph /  1.9 km/h 90 % 0.00 in /  0 mm
01:54 69.2 °F /  20.7 °C 66.1 °F /  18.9 °C 29.90 in /  1012.4 hPa Calm   1.2 mph /  1.9 km/h 90 % 0.00 in /  0 mm
01:59 69.2 °F /  20.7 °C 66.1 °F /  18.9 °C 29.89 in /  1012.1 hPa Calm   1.2 mph /  1.9 km/h 90 % 0.00 in /  0 mm
02:04 69.2 °F /  20.7 °C 66.1 °F /  18.9 °C 29.89 in /  1012.1 hPa Calm     90 % 0.00 in /  0 mm
02:09 69.2 °F /  20.7 °C 66.1 °F /  18.9 °C 29.89 in /  1012.1 hPa Calm     90 % 0.00 in /  0 mm
02:14 69.2 °F /  20.7 °C 66.1 °F /  18.9 °C 29.89 in /  1012.1 hPa Calm     90 % 0.00 in /  0 mm
02:19 69.2 °F /  20.7 °C 66.1 °F /  18.9 °C 29.88 in /  1011.7 hPa Calm     90 % 0.00 in /  0 mm
02:24 69.2 °F /  20.7 °C 66.1 °F /  18.9 °C 29.88 in /  1011.7 hPa Calm     90 % 0.00 in /  0 mm
02:29 69.2 °F /  20.7 °C 66.1 °F /  18.9 °C 29.88 in /  1011.7 hPa Calm     90 % 0.00 in /  0 mm
02:34 69.2 °F /  20.7 °C 66.1 °F /  18.9 °C 29.88 in /  1011.7 hPa Calm     90 % 0.00 in /  0 mm
02:39 69.2 °F /  20.7 °C 66.1 °F /  18.9 °C 29.88 in /  1011.7 hPa Calm     90 % 0.00 in /  0 mm
02:45 69.2 °F /  20.7 °C 66.1 °F /  18.9 °C 29.87 in /  1011.4 hPa Calm     90 % 0.00 in /  0 mm
02:50 69.2 °F /  20.7 °C 66.1 °F /  18.9 °C 29.87 in /  1011.4 hPa Calm     90 % 0.00 in /  0 mm
02:55 69.2 °F /  20.7 °C 66.5 °F /  19.2 °C 29.87 in /  1011.4 hPa Calm     91 % 0.00 in /  0 mm
03:00 69.2 °F /  20.7 °C 66.1 °F /  18.9 °C 29.87 in /  1011.4 hPa Calm     90 % 0.00 in /  0 mm
03:05 69.3 °F /  20.7 °C 66.2 °F /  19 °C 29.87 in /  1011.4 hPa Calm     90 % 0.00 in /  0 mm
03:10 69.2 °F /  20.7 °C 66.1 °F /  18.9 °C 29.87 in /  1011.4 hPa Calm     90 % 0.00 in /  0 mm
03:15 69.2 °F /  20.7 °C 66.1 °F /  18.9 °C 29.86 in /  1011.1 hPa North 0.1 mph /  0.2 km/h 1.2 mph /  1.9 km/h 90 % 0.00 in /  0 mm
03:20 69.2 °F /  20.7 °C 66.1 °F /  18.9 °C 29.86 in /  1011.1 hPa Calm     90 % 0.00 in /  0 mm
03:25 69.2 °F /  20.7 °C 66.5 °F /  19.2 °C 29.86 in /  1011.1 hPa Calm     91 % 0.00 in /  0 mm
03:30 69.3 °F /  20.7 °C 66.6 °F /  19.2 °C 29.86 in /  1011.1 hPa Calm     91 % 0.00 in /  0 mm
03:35 69.3 °F /  20.7 °C 66.6 °F /  19.2 °C 29.85 in /  1010.7 hPa Calm   1.2 mph /  1.9 km/h 91 % 0.00 in /  0 mm
03:40 69.3 °F /  20.7 °C 66.6 °F /  19.2 °C 29.85 in /  1010.7 hPa Calm   1.0 mph /  1.6 km/h 91 % 0.00 in /  0 mm
03:45 69.3 °F /  20.7 °C 66.9 °F /  19.4 °C 29.84 in /  1010.4 hPa Calm     92 % 0.00 in /  0 mm
03:50 69.3 °F /  20.7 °C 66.9 °F /  19.4 °C 29.84 in /  1010.4 hPa Calm     92 % 0.00 in /  0 mm
03:55 69.3 °F /  20.7 °C 66.9 °F /  19.4 °C 29.83 in /  1010 hPa Calm     92 % 0.00 in /  0 mm
04:00 69.2 °F /  20.7 °C 66.8 °F /  19.3 °C 29.83 in /  1010 hPa North 0.1 mph /  0.2 km/h 1.2 mph /  1.9 km/h 92 % 0.00 in /  0 mm
04:05 69.2 °F /  20.7 °C 66.8 °F /  19.3 °C 29.83 in /  1010 hPa Calm     92 % 0.00 in /  0 mm
04:10 69.3 °F /  20.7 °C 67.2 °F /  19.6 °C 29.83 in /  1010 hPa Calm     93 % 0.00 in /  0 mm
04:15 69.3 °F /  20.7 °C 67.2 °F /  19.6 °C 29.83 in /  1010 hPa Calm     93 % 0.00 in /  0 mm
04:20 69.3 °F /  20.7 °C 67.2 °F /  19.6 °C 29.83 in /  1010 hPa Calm     93 % 0.00 in /  0 mm
04:25 69.4 °F /  20.8 °C 67.3 °F /  19.6 °C 29.83 in /  1010 hPa Calm     93 % 0.00 in /  0 mm
04:30 69.4 °F /  20.8 °C 67.3 °F /  19.6 °C 29.83 in /  1010 hPa Calm     93 % 0.00 in /  0 mm
04:35 69.4 °F /  20.8 °C 67.6 °F /  19.8 °C 29.83 in /  1010 hPa North 0.1 mph /  0.2 km/h   94 % 0.00 in /  0 mm
04:40 69.5 °F /  20.8 °C 67.7 °F /  19.8 °C 29.82 in /  1009.7 hPa North 0.1 mph /  0.2 km/h 1.2 mph /  1.9 km/h 94 % 0.00 in /  0 mm
04:45 69.5 °F /  20.8 °C 67.7 °F /  19.8 °C 29.82 in /  1009.7 hPa North 0.1 mph /  0.2 km/h   94 % 0.00 in /  0 mm
04:50 69.6 °F /  20.9 °C 67.8 °F /  19.9 °C 29.82 in /  1009.7 hPa Calm   1.2 mph /  1.9 km/h 94 % 0.00 in /  0 mm
04:55 69.6 °F /  20.9 °C 67.8 °F /  19.9 °C 29.82 in /  1009.7 hPa Calm   1.2 mph /  1.9 km/h 94 % 0.00 in /  0 mm
05:00 69.7 °F /  20.9 °C 67.9 °F /  19.9 °C 29.82 in /  1009.7 hPa Calm   1.2 mph /  1.9 km/h 94 % 0.00 in /  0 mm
05:05 69.7 °F /  20.9 °C 67.9 °F /  19.9 °C 29.82 in /  1009.7 hPa North 0.3 mph /  0.5 km/h 2.0 mph /  3.2 km/h 94 % 0.00 in /  0 mm
05:11 69.7 °F /  20.9 °C 67.9 °F /  19.9 °C 29.81 in /  1009.4 hPa NNE 0.4 mph /  0.6 km/h 1.2 mph /  1.9 km/h 94 % 0.00 in /  0 mm
05:16 69.7 °F /  20.9 °C 67.9 °F /  19.9 °C 29.81 in /  1009.4 hPa Calm   2.0 mph /  3.2 km/h 94 % 0.00 in /  0 mm
05:21 69.7 °F /  20.9 °C 67.9 °F /  19.9 °C 29.81 in /  1009.4 hPa NE 1.0 mph /  1.6 km/h 3.0 mph /  4.8 km/h 94 % 0.00 in /  0 mm
05:26 69.7 °F /  20.9 °C 68.2 °F /  20.1 °C 29.81 in /  1009.4 hPa ENE 1.0 mph /  1.6 km/h 3.0 mph /  4.8 km/h 95 % 0.00 in /  0 mm
05:31 69.7 °F /  20.9 °C 68.2 °F /  20.1 °C 29.81 in /  1009.4 hPa NE 0.7 mph /  1.1 km/h 3.5 mph /  5.6 km/h 95 % 0.00 in /  0 mm
05:36 69.7 °F /  20.9 °C 68.2 °F /  20.1 °C 29.81 in /  1009.4 hPa NE 1.0 mph /  1.6 km/h 4.0 mph /  6.4 km/h 95 % 0.00 in /  0 mm
05:41 69.8 °F /  21 °C 68.3 °F /  20.2 °C 29.81 in /  1009.4 hPa NE 2.0 mph /  3.2 km/h 7.0 mph /  11.3 km/h 95 % 0.00 in /  0 mm
05:46 69.8 °F /  21 °C 68.3 °F /  20.2 °C 29.81 in /  1009.4 hPa NE 2.0 mph /  3.2 km/h 5.0 mph /  8 km/h 95 % 0.00 in /  0 mm
05:51 69.9 °F /  21.1 °C 68.4 °F /  20.2 °C 29.81 in /  1009.4 hPa NE 1.0 mph /  1.6 km/h 3.0 mph /  4.8 km/h 95 % 0.00 in /  0 mm
05:56 69.9 °F /  21.1 °C 68.4 °F /  20.2 °C 29.80 in /  1009 hPa NE 2.0 mph /  3.2 km/h 7.0 mph /  11.3 km/h 95 % 0.00 in /  0 mm
06:01 69.8 °F /  21 °C 68.3 °F /  20.2 °C 29.80 in /  1009 hPa ENE 2.9 mph /  4.7 km/h 6.9 mph /  11.1 km/h 95 % 0.00 in /  0 mm
06:06 69.7 °F /  20.9 °C 68.2 °F /  20.1 °C 29.80 in /  1009 hPa NE 3.8 mph /  6.1 km/h 9.2 mph /  14.8 km/h 95 % 0.00 in /  0 mm
06:11 69.6 °F /  20.9 °C 68.1 °F /  20.1 °C 29.80 in /  1009 hPa ENE 1.6 mph /  2.6 km/h 3.5 mph /  5.6 km/h 95 % 0.00 in /  0 mm
06:16 69.5 °F /  20.8 °C 68.0 °F /  20 °C 29.80 in /  1009 hPa ENE 2.4 mph /  3.9 km/h 3.5 mph /  5.6 km/h 95 % 0.00 in /  0 mm
06:21 69.5 °F /  20.8 °C 68.0 °F /  20 °C 29.79 in /  1008.7 hPa NE 1.7 mph /  2.7 km/h 2.3 mph /  3.7 km/h 95 % 0.00 in /  0 mm
06:26 69.5 °F /  20.8 °C 68.0 °F /  20 °C 29.79 in /  1008.7 hPa ENE 2.5 mph /  4 km/h 5.0 mph /  8 km/h 95 % 0.00 in /  0 mm
06:31 69.5 °F /  20.8 °C 68.0 °F /  20 °C 29.80 in /  1009 hPa ENE 1.7 mph /  2.7 km/h 3.5 mph /  5.6 km/h 95 % 0.00 in /  0 mm
06:36 69.4 °F /  20.8 °C 67.9 °F /  19.9 °C 29.80 in /  1009 hPa NE 1.6 mph /  2.6 km/h 4.6 mph /  7.4 km/h 95 % 0.00 in /  0 mm
06:41 69.4 °F /  20.8 °C 67.9 °F /  19.9 °C 29.80 in /  1009 hPa ENE 2.4 mph /  3.9 km/h 3.5 mph /  5.6 km/h 95 % 0.00 in /  0 mm
06:46 69.4 °F /  20.8 °C 67.9 °F /  19.9 °C 29.79 in /  1008.7 hPa NE 3.5 mph /  5.6 km/h 5.0 mph /  8 km/h 95 % 0.00 in /  0 mm
06:51 69.3 °F /  20.7 °C 67.8 °F /  19.9 °C 29.79 in /  1008.7 hPa NE 3.2 mph /  5.1 km/h 4.6 mph /  7.4 km/h 95 % 0.00 in /  0 mm
06:56 69.3 °F /  20.7 °C 67.8 °F /  19.9 °C 29.78 in /  1008.4 hPa ENE 3.4 mph /  5.5 km/h 4.6 mph /  7.4 km/h 95 % 0.00 in /  0 mm
07:01 69.2 °F /  20.7 °C 67.7 °F /  19.8 °C 29.79 in /  1008.7 hPa ENE 2.3 mph /  3.7 km/h 3.5 mph /  5.6 km/h 95 % 0.00 in /  0 mm
07:06 69.2 °F /  20.7 °C 68.0 °F /  20 °C 29.79 in /  1008.7 hPa ENE 2.4 mph /  3.9 km/h 5.8 mph /  9.3 km/h 96 % 0.00 in /  0 mm
07:11 69.2 °F /  20.7 °C 68.0 °F /  20 °C 29.78 in /  1008.4 hPa ENE 1.5 mph /  2.4 km/h 5.0 mph /  8 km/h 96 % 0.00 in /  0 mm
07:16 69.2 °F /  20.7 °C 68.0 °F /  20 °C 29.77 in /  1008 hPa ENE 4.0 mph /  6.4 km/h 6.9 mph /  11.1 km/h 96 % 0.00 in /  0 mm
07:21 69.2 °F /  20.7 °C 68.0 °F /  20 °C 29.78 in /  1008.4 hPa North 2.2 mph /  3.5 km/h 3.5 mph /  5.6 km/h 96 % 0.00 in /  0 mm
07:26 69.3 °F /  20.7 °C 68.1 °F /  20.1 °C 29.78 in /  1008.4 hPa NNE 2.2 mph /  3.5 km/h 3.5 mph /  5.6 km/h 96 % 0.00 in /  0 mm
07:31 69.3 °F /  20.7 °C 68.1 °F /  20.1 °C 29.77 in /  1008 hPa NE 1.6 mph /  2.6 km/h 3.5 mph /  5.6 km/h 96 % 0.00 in /  0 mm
07:36 69.4 °F /  20.8 °C 68.2 °F /  20.1 °C 29.77 in /  1008 hPa ENE 3.1 mph /  5 km/h 3.5 mph /  5.6 km/h 96 % 0.00 in /  0 mm
07:41 69.4 °F /  20.8 °C 68.2 °F /  20.1 °C 29.77 in /  1008 hPa ENE 4.0 mph /  6.4 km/h 5.8 mph /  9.3 km/h 96 % 0.00 in /  0 mm
07:46 69.4 °F /  20.8 °C 68.2 °F /  20.1 °C 29.76 in /  1007.7 hPa NE 2.8 mph /  4.5 km/h 8.1 mph /  13 km/h 96 % 0.00 in /  0 mm
07:51 69.4 °F /  20.8 °C 68.2 °F /  20.1 °C 29.76 in /  1007.7 hPa NE 5.7 mph /  9.2 km/h 7.0 mph /  11.3 km/h 96 % 0.00 in /  0 mm
07:57 69.4 °F /  20.8 °C 68.2 °F /  20.1 °C 29.76 in /  1007.7 hPa ENE 3.6 mph /  5.8 km/h 8.1 mph /  13 km/h 96 % 0.00 in /  0 mm
08:02 69.3 °F /  20.7 °C 68.1 °F /  20.1 °C 29.76 in /  1007.7 hPa ENE 4.1 mph /  6.6 km/h 6.9 mph /  11.1 km/h 96 % 0.00 in /  0 mm
08:07 69.2 °F /  20.7 °C 68.0 °F /  20 °C 29.75 in /  1007.3 hPa ENE 5.2 mph /  8.4 km/h 9.2 mph /  14.8 km/h 96 % 0.00 in /  0 mm
08:12 69.1 °F /  20.6 °C 67.9 °F /  19.9 °C 29.75 in /  1007.3 hPa ENE 3.7 mph /  6 km/h 8.1 mph /  13 km/h 96 % 0.00 in /  0 mm
08:17 69.1 °F /  20.6 °C 67.9 °F /  19.9 °C 29.75 in /  1007.3 hPa NE 3.4 mph /  5.5 km/h 4.6 mph /  7.4 km/h 96 % 0.00 in /  0 mm
08:22 69.2 °F /  20.7 °C 68.0 °F /  20 °C 29.75 in /  1007.3 hPa NE 4.3 mph /  6.9 km/h 10.4 mph /  16.7 km/h 96 % 0.00 in /  0 mm
08:27 69.2 °F /  20.7 °C 68.0 °F /  20 °C 29.75 in /  1007.3 hPa NE 2.5 mph /  4 km/h 4.6 mph /  7.4 km/h 96 % 0.00 in /  0 mm
08:32 69.3 °F /  20.7 °C 68.1 °F /  20.1 °C 29.75 in /  1007.3 hPa NE 2.9 mph /  4.7 km/h 6.9 mph /  11.1 km/h 96 % 0.00 in /  0 mm
08:37 69.3 °F /  20.7 °C 68.1 °F /  20.1 °C 29.75 in /  1007.3 hPa NE 3.0 mph /  4.8 km/h 5.8 mph /  9.3 km/h 96 % 0.00 in /  0 mm
08:42 69.2 °F /  20.7 °C 68.0 °F /  20 °C 29.75 in /  1007.3 hPa ENE 4.0 mph /  6.4 km/h 8.0 mph /  12.9 km/h 96 % 0.00 in /  0 mm
08:47 69.2 °F /  20.7 °C 68.0 °F /  20 °C 29.75 in /  1007.3 hPa ENE 4.4 mph /  7.1 km/h 9.2 mph /  14.8 km/h 96 % 0.00 in /  0 mm
08:52 69.1 °F /  20.6 °C 67.9 °F /  19.9 °C 29.75 in /  1007.3 hPa ENE 2.0 mph /  3.2 km/h 4.6 mph /  7.4 km/h 96 % 0.00 in /  0 mm
08:57 69.0 °F /  20.6 °C 67.8 °F /  19.9 °C 29.75 in /  1007.3 hPa ENE 3.3 mph /  5.3 km/h 6.9 mph /  11.1 km/h 96 % 0.00 in /  0 mm
09:02 69.0 °F /  20.6 °C 67.8 °F /  19.9 °C 29.75 in /  1007.3 hPa East 2.9 mph /  4.7 km/h 6.9 mph /  11.1 km/h 96 % 0.00 in /  0 mm
09:07 69.1 °F /  20.6 °C 67.9 °F /  19.9 °C 29.75 in /  1007.3 hPa ENE 5.8 mph /  9.3 km/h 8.1 mph /  13 km/h 96 % 0.00 in /  0 mm
09:12 69.1 °F /  20.6 °C 67.9 °F /  19.9 °C 29.74 in /  1007 hPa NE 4.9 mph /  7.9 km/h 6.9 mph /  11.1 km/h 96 % 0.00 in /  0 mm
09:17 69.2 °F /  20.7 °C 68.3 °F /  20.2 °C 29.74 in /  1007 hPa ENE 3.8 mph /  6.1 km/h 9.2 mph /  14.8 km/h 97 % 0.00 in /  0 mm
09:23 69.2 °F /  20.7 °C 68.3 °F /  20.2 °C 29.74 in /  1007 hPa ENE 5.1 mph /  8.2 km/h 6.9 mph /  11.1 km/h 97 % 0.00 in /  0 mm
09:28 69.3 °F /  20.7 °C 68.4 °F /  20.2 °C 29.74 in /  1007 hPa ENE 3.5 mph /  5.6 km/h 6.9 mph /  11.1 km/h 97 % 0.00 in /  0 mm
09:33 69.3 °F /  20.7 °C 68.4 °F /  20.2 °C 29.74 in /  1007 hPa ENE 2.3 mph /  3.7 km/h 4.6 mph /  7.4 km/h 97 % 0.00 in /  0 mm
09:38 69.3 °F /  20.7 °C 68.4 °F /  20.2 °C 29.74 in /  1007 hPa East 2.9 mph /  4.7 km/h 8.1 mph /  13 km/h 97 % 0.00 in /  0 mm
09:43 69.3 °F /  20.7 °C 68.4 °F /  20.2 °C 29.74 in /  1007 hPa ENE 3.2 mph /  5.1 km/h 6.9 mph /  11.1 km/h 97 % 0.00 in /  0 mm
09:48 69.3 °F /  20.7 °C 68.4 °F /  20.2 °C 29.73 in /  1006.7 hPa ENE 1.5 mph /  2.4 km/h 3.5 mph /  5.6 km/h 97 % 0.00 in /  0 mm
09:53 69.4 °F /  20.8 °C 68.5 °F /  20.3 °C 29.73 in /  1006.7 hPa ENE 1.9 mph /  3.1 km/h 4.0 mph /  6.4 km/h 97 % 0.00 in /  0 mm
09:58 69.5 °F /  20.8 °C 68.6 °F /  20.3 °C 29.73 in /  1006.7 hPa East 0.7 mph /  1.1 km/h 3.5 mph /  5.6 km/h 97 % 0.00 in /  0 mm
10:03 69.5 °F /  20.8 °C 68.6 °F /  20.3 °C 29.73 in /  1006.7 hPa ENE 1.8 mph /  2.9 km/h 2.3 mph /  3.7 km/h 97 % 0.00 in /  0 mm
10:09 69.6 °F /  20.9 °C 68.7 °F /  20.4 °C 29.73 in /  1006.7 hPa ENE 1.0 mph /  1.6 km/h 3.5 mph /  5.6 km/h 97 % 0.00 in /  0 mm
10:14 69.7 °F /  20.9 °C 68.8 °F /  20.4 °C 29.73 in /  1006.7 hPa ENE 1.8 mph /  2.9 km/h 3.5 mph /  5.6 km/h 97 % 0.00 in /  0 mm
10:19 69.8 °F /  21 °C 68.9 °F /  20.5 °C 29.72 in /  1006.3 hPa ENE 0.7 mph /  1.1 km/h 3.5 mph /  5.6 km/h 97 % 0.00 in /  0 mm
10:24 69.8 °F /  21 °C 68.9 °F /  20.5 °C 29.73 in /  1006.7 hPa ENE 1.1 mph /  1.8 km/h 2.3 mph /  3.7 km/h 97 % 0.00 in /  0 mm
10:29 69.9 °F /  21.1 °C 69.0 °F /  20.6 °C 29.72 in /  1006.3 hPa ENE 0.8 mph /  1.3 km/h 2.3 mph /  3.7 km/h 97 % 0.00 in /  0 mm
10:34 69.9 °F /  21.1 °C 69.0 °F /  20.6 °C 29.73 in /  1006.7 hPa ENE 0.8 mph /  1.3 km/h 2.3 mph /  3.7 km/h 97 % 0.01 in /  0.25 mm
10:39 69.9 °F /  21.1 °C 69.0 °F /  20.6 °C 29.72 in /  1006.3 hPa ESE 1.0 mph /  1.6 km/h 2.3 mph /  3.7 km/h 97 % 0.01 in /  0.25 mm
10:44 69.9 °F /  21.1 °C 69.0 °F /  20.6 °C 29.72 in /  1006.3 hPa SE 0.8 mph /  1.3 km/h 2.3 mph /  3.7 km/h 97 % 0.01 in /  0.25 mm
10:49 69.9 °F /  21.1 °C 69.0 °F /  20.6 °C 29.72 in /  1006.3 hPa SE 0.8 mph /  1.3 km/h 2.0 mph /  3.2 km/h 97 % 0.01 in /  0.25 mm
10:54 69.9 °F /  21.1 °C 69.0 °F /  20.6 °C 29.72 in /  1006.3 hPa NNE 0.4 mph /  0.6 km/h 1.2 mph /  1.9 km/h 97 % 0.01 in /  0.25 mm
10:59 69.9 °F /  21.1 °C 69.0 °F /  20.6 °C 29.72 in /  1006.3 hPa NNE 0.4 mph /  0.6 km/h 2.3 mph /  3.7 km/h 97 % 0.01 in /  0.25 mm
11:01 69.9 °F /  21.1 °C 68.7 °F /  20.4 °C 29.72 in /  1006.3 hPa NNE 0.5 mph /  0.8 km/h 1.2 mph /  1.9 km/h 96 % 0.01 in /  0.25 mm
11:06 69.8 °F /  21 °C 68.6 °F /  20.3 °C 29.72 in /  1006.3 hPa North 0.4 mph /  0.6 km/h 2.3 mph /  3.7 km/h 96 % 0.01 in /  0.25 mm
11:11 69.8 °F /  21 °C 68.6 °F /  20.3 °C 29.72 in /  1006.3 hPa North 0.1 mph /  0.2 km/h 1.2 mph /  1.9 km/h 96 % 0.01 in /  0.25 mm
11:16 69.8 °F /  21 °C 68.6 °F /  20.3 °C 29.72 in /  1006.3 hPa North 0.3 mph /  0.5 km/h 1.2 mph /  1.9 km/h 96 % 0.01 in /  0.25 mm
11:22 69.7 °F /  20.9 °C 68.5 °F /  20.3 °C 29.72 in /  1006.3 hPa NE 1.2 mph /  1.9 km/h 5.0 mph /  8 km/h 96 % 0.01 in /  0.25 mm
11:27 69.6 °F /  20.9 °C 68.4 °F /  20.2 °C 29.73 in /  1006.7 hPa NE 3.4 mph /  5.5 km/h 8.1 mph /  13 km/h 96 % 0.01 in /  0.25 mm
11:32 69.5 °F /  20.8 °C 68.3 °F /  20.2 °C 29.73 in /  1006.7 hPa ENE 2.3 mph /  3.7 km/h 3.5 mph /  5.6 km/h 96 % 0.02 in /  0.51 mm
11:37 69.5 °F /  20.8 °C 68.3 °F /  20.2 °C 29.73 in /  1006.7 hPa North 1.9 mph /  3.1 km/h 5.8 mph /  9.3 km/h 96 % 0.07 in /  1.78 mm
11:42 69.4 °F /  20.8 °C 68.2 °F /  20.1 °C 29.74 in /  1007 hPa North 5.3 mph /  8.5 km/h 8.1 mph /  13 km/h 96 % 0.12 in /  3.05 mm
11:47 69.2 °F /  20.7 °C 68.0 °F /  20 °C 29.74 in /  1007 hPa North 3.9 mph /  6.3 km/h 6.9 mph /  11.1 km/h 96 % 0.18 in /  4.57 mm
11:52 69.0 °F /  20.6 °C 67.8 °F /  19.9 °C 29.73 in /  1006.7 hPa NNW 2.8 mph /  4.5 km/h 5.8 mph /  9.3 km/h 96 % 0.24 in /  6.1 mm
11:57 68.9 °F /  20.5 °C 67.7 °F /  19.8 °C 29.73 in /  1006.7 hPa NNE 2.0 mph /  3.2 km/h 8.0 mph /  12.9 km/h 96 % 0.30 in /  7.62 mm
12:02 68.8 °F /  20.4 °C 67.6 °F /  19.8 °C 29.73 in /  1006.7 hPa North 7.2 mph /  11.6 km/h 11.5 mph /  18.5 km/h 96 % 0.36 in /  9.14 mm
12:07 68.6 °F /  20.3 °C 67.4 °F /  19.7 °C 29.73 in /  1006.7 hPa NE 8.3 mph /  13.4 km/h 10.4 mph /  16.7 km/h 96 % 0.41 in /  10.41 mm
12:12 68.5 °F /  20.3 °C 67.3 °F /  19.6 °C 29.73 in /  1006.7 hPa NNE 8.1 mph /  13 km/h 11.5 mph /  18.5 km/h 96 % 0.45 in /  11.43 mm
12:17 68.4 °F /  20.2 °C 67.2 °F /  19.6 °C 29.74 in /  1007 hPa NNE 7.8 mph /  12.6 km/h 11.5 mph /  18.5 km/h 96 % 0.50 in /  12.7 mm
12:22 68.4 °F /  20.2 °C 67.2 °F /  19.6 °C 29.73 in /  1006.7 hPa NNE 4.5 mph /  7.2 km/h 13.8 mph /  22.2 km/h 96 % 0.55 in /  13.97 mm
12:27 68.3 °F /  20.2 °C 67.1 °F /  19.5 °C 29.72 in /  1006.3 hPa ENE 4.0 mph /  6.4 km/h 8.1 mph /  13 km/h 96 % 0.60 in /  15.24 mm
12:32 68.4 °F /  20.2 °C 67.5 °F /  19.7 °C 29.72 in /  1006.3 hPa North 3.5 mph /  5.6 km/h 6.9 mph /  11.1 km/h 97 % 0.63 in /  16 mm
12:37 68.5 °F /  20.3 °C 67.6 °F /  19.8 °C 29.72 in /  1006.3 hPa NE 4.7 mph /  7.6 km/h 6.0 mph /  9.7 km/h 97 % 0.63 in /  16 mm
12:42 68.5 °F /  20.3 °C 67.6 °F /  19.8 °C 29.72 in /  1006.3 hPa ENE 4.7 mph /  7.6 km/h 8.1 mph /  13 km/h 97 % 0.62 in /  15.75 mm
12:47 68.5 °F /  20.3 °C 67.6 °F /  19.8 °C 29.72 in /  1006.3 hPa NE 5.2 mph /  8.4 km/h 11.5 mph /  18.5 km/h 97 % 0.59 in /  14.99 mm
12:52 68.5 °F /  20.3 °C 67.6 °F /  19.8 °C 29.71 in /  1006 hPa ENE 5.2 mph /  8.4 km/h 8.1 mph /  13 km/h 97 % 0.56 in /  14.22 mm
12:57 68.4 °F /  20.2 °C 67.5 °F /  19.7 °C 29.72 in /  1006.3 hPa East 6.0 mph /  9.7 km/h 11.5 mph /  18.5 km/h 97 % 0.52 in /  13.21 mm
13:02 68.3 °F /  20.2 °C 67.4 °F /  19.7 °C 29.71 in /  1006 hPa ENE 6.7 mph /  10.8 km/h 11.5 mph /  18.5 km/h 97 % 0.47 in /  11.94 mm
13:07 68.3 °F /  20.2 °C 67.4 °F /  19.7 °C 29.72 in /  1006.3 hPa NE 4.6 mph /  7.4 km/h 10.0 mph /  16.1 km/h 97 % 0.42 in /  10.67 mm
13:12 68.5 °F /  20.3 °C 67.6 °F /  19.8 °C 29.71 in /  1006 hPa ENE 6.4 mph /  10.3 km/h 12.7 mph /  20.4 km/h 97 % 0.38 in /  9.65 mm
13:17 68.6 °F /  20.3 °C 67.7 °F /  19.8 °C 29.71 in /  1006 hPa ENE 4.9 mph /  7.9 km/h 6.9 mph /  11.1 km/h 97 % 0.33 in /  8.38 mm
13:22 68.8 °F /  20.4 °C 67.9 °F /  19.9 °C 29.71 in /  1006 hPa NE 5.7 mph /  9.2 km/h 12.7 mph /  20.4 km/h 97 % 0.28 in /  7.11 mm
13:27 68.9 °F /  20.5 °C 68.0 °F /  20 °C 29.71 in /  1006 hPa East 4.8 mph /  7.7 km/h 11.5 mph /  18.5 km/h 97 % 0.23 in /  5.84 mm
13:33 68.9 °F /  20.5 °C 68.0 °F /  20 °C 29.71 in /  1006 hPa NNE 4.3 mph /  6.9 km/h 9.2 mph /  14.8 km/h 97 % 0.18 in /  4.57 mm
13:38 68.9 °F /  20.5 °C 68.0 °F /  20 °C 29.71 in /  1006 hPa NE 3.6 mph /  5.8 km/h 5.8 mph /  9.3 km/h 97 % 0.13 in /  3.3 mm
13:43 69.0 °F /  20.6 °C 68.1 °F /  20.1 °C 29.71 in /  1006 hPa NNE 5.2 mph /  8.4 km/h 6.9 mph /  11.1 km/h 97 % 0.09 in /  2.29 mm
13:48 69.1 °F /  20.6 °C 68.2 °F /  20.1 °C 29.71 in /  1006 hPa NE 4.0 mph /  6.4 km/h 4.0 mph /  6.4 km/h 97 % 0.06 in /  1.52 mm
13:53 69.2 °F /  20.7 °C 68.3 °F /  20.2 °C 29.71 in /  1006 hPa NE 2.2 mph /  3.5 km/h 7.0 mph /  11.3 km/h 97 % 0.03 in /  0.76 mm
13:58 69.3 °F /  20.7 °C 68.4 °F /  20.2 °C 29.71 in /  1006 hPa ENE 1.0 mph /  1.6 km/h 6.9 mph /  11.1 km/h 97 % 0.01 in /  0.25 mm
14:03 69.4 °F /  20.8 °C 68.5 °F /  20.3 °C 29.71 in /  1006 hPa NNE 2.8 mph /  4.5 km/h 4.6 mph /  7.4 km/h 97 % 0.00 in /  0 mm
14:08 69.6 °F /  20.9 °C 68.7 °F /  20.4 °C 29.71 in /  1006 hPa NE 2.8 mph /  4.5 km/h 6.9 mph /  11.1 km/h 97 % 0.00 in /  0 mm
14:13 69.8 °F /  21 °C 68.9 °F /  20.5 °C 29.70 in /  1005.6 hPa NE 2.9 mph /  4.7 km/h 4.0 mph /  6.4 km/h 97 % 0.00 in /  0 mm
14:18 70.0 °F /  21.1 °C 69.1 °F /  20.6 °C 29.70 in /  1005.6 hPa NNE 3.4 mph /  5.5 km/h 6.9 mph /  11.1 km/h 97 % 0.00 in /  0 mm
14:23 70.3 °F /  21.3 °C 69.4 °F /  20.8 °C 29.71 in /  1006 hPa North 1.0 mph /  1.6 km/h 3.5 mph /  5.6 km/h 97 % 0.00 in /  0 mm
14:28 70.6 °F /  21.4 °C 69.7 °F /  20.9 °C 29.71 in /  1006 hPa NNE 4.3 mph /  6.9 km/h 5.8 mph /  9.3 km/h 97 % 0.00 in /  0 mm
14:33 70.8 °F /  21.6 °C 69.9 °F /  21.1 °C 29.71 in /  1006 hPa NNE 2.4 mph /  3.9 km/h 6.9 mph /  11.1 km/h 97 % 0.00 in /  0 mm
14:38 71.0 °F /  21.7 °C 70.1 °F /  21.2 °C 29.70 in /  1005.6 hPa NNE 0.7 mph /  1.1 km/h 2.3 mph /  3.7 km/h 97 % 0.00 in /  0 mm
14:43 71.3 °F /  21.8 °C 70.4 °F /  21.3 °C 29.70 in /  1005.6 hPa NNE 3.7 mph /  6 km/h 7.0 mph /  11.3 km/h 97 % 0.00 in /  0 mm
14:48 71.5 °F /  21.9 °C 70.6 °F /  21.4 °C 29.71 in /  1006 hPa NNW 1.2 mph /  1.9 km/h 3.5 mph /  5.6 km/h 97 % 0.00 in /  0 mm
14:53 71.4 °F /  21.9 °C 70.2 °F /  21.2 °C 29.71 in /  1006 hPa ENE 1.8 mph /  2.9 km/h 3.0 mph /  4.8 km/h 96 % 0.00 in /  0 mm
14:58 71.5 °F /  21.9 °C 70.3 °F /  21.3 °C 29.70 in /  1005.6 hPa North 0.7 mph /  1.1 km/h 4.0 mph /  6.4 km/h 96 % 0.00 in /  0 mm
15:03 71.7 °F /  22.1 °C 70.5 °F /  21.4 °C 29.71 in /  1006 hPa NNW 1.9 mph /  3.1 km/h 3.5 mph /  5.6 km/h 96 % 0.00 in /  0 mm
15:08 72.0 °F /  22.2 °C 70.8 °F /  21.6 °C 29.71 in /  1006 hPa NNE 1.7 mph /  2.7 km/h 3.5 mph /  5.6 km/h 96 % 0.00 in /  0 mm
15:14 72.2 °F /  22.3 °C 71.0 °F /  21.7 °C 29.70 in /  1005.6 hPa Calm   5.8 mph /  9.3 km/h 96 % 0.00 in /  0 mm
15:19 72.4 °F /  22.4 °C 70.9 °F /  21.6 °C 29.71 in /  1006 hPa NW 1.8 mph /  2.9 km/h 3.5 mph /  5.6 km/h 95 % 0.00 in /  0 mm
15:24 72.4 °F /  22.4 °C 70.6 °F /  21.4 °C 29.70 in /  1005.6 hPa North 1.3 mph /  2.1 km/h 4.6 mph /  7.4 km/h 94 % 0.00 in /  0 mm
15:29 72.4 °F /  22.4 °C 70.6 °F /  21.4 °C 29.70 in /  1005.6 hPa NNE 0.9 mph /  1.4 km/h 3.5 mph /  5.6 km/h 94 % 0.00 in /  0 mm
15:34 72.5 °F /  22.5 °C 70.7 °F /  21.5 °C 29.71 in /  1006 hPa NW 0.2 mph /  0.3 km/h 3.5 mph /  5.6 km/h 94 % 0.00 in /  0 mm
15:39 72.5 °F /  22.5 °C 70.4 °F /  21.3 °C 29.70 in /  1005.6 hPa North 1.3 mph /  2.1 km/h 3.5 mph /  5.6 km/h 93 % 0.00 in /  0 mm
15:44 72.6 °F /  22.6 °C 70.5 °F /  21.4 °C 29.70 in /  1005.6 hPa NNW 3.2 mph /  5.1 km/h 6.0 mph /  9.7 km/h 93 % 0.00 in /  0 mm
15:47 72.6 °F /  22.6 °C 70.5 °F /  21.4 °C 29.70 in /  1005.6 hPa North 1.2 mph /  1.9 km/h 5.8 mph /  9.3 km/h 93 % 0.00 in /  0 mm
15:52 72.6 °F /  22.6 °C 70.5 °F /  21.4 °C 29.70 in /  1005.6 hPa North 1.8 mph /  2.9 km/h 4.6 mph /  7.4 km/h 93 % 0.00 in /  0 mm
15:57 72.6 °F /  22.6 °C 70.5 °F /  21.4 °C 29.69 in /  1005.3 hPa North 3.2 mph /  5.1 km/h 6.9 mph /  11.1 km/h 93 % 0.00 in /  0 mm
16:02 72.7 °F /  22.6 °C 70.2 °F /  21.2 °C 29.69 in /  1005.3 hPa North 2.9 mph /  4.7 km/h 6.9 mph /  11.1 km/h 92 % 0.00 in /  0 mm
16:07 72.7 °F /  22.6 °C 70.2 °F /  21.2 °C 29.68 in /  1005 hPa NNW 1.6 mph /  2.6 km/h 3.5 mph /  5.6 km/h 92 % 0.00 in /  0 mm
16:12 72.8 °F /  22.7 °C 70.3 °F /  21.3 °C 29.69 in /  1005.3 hPa North 1.3 mph /  2.1 km/h 3.5 mph /  5.6 km/h 92 % 0.00 in /  0 mm
16:17 72.9 °F /  22.7 °C 70.1 °F /  21.2 °C 29.68 in /  1005 hPa NNE 2.5 mph /  4 km/h 4.6 mph /  7.4 km/h 91 % 0.00 in /  0 mm
16:22 73.1 °F /  22.8 °C 70.6 °F /  21.4 °C 29.68 in /  1005 hPa North 1.9 mph /  3.1 km/h 4.6 mph /  7.4 km/h 92 % 0.00 in /  0 mm
16:27 73.3 °F /  22.9 °C 70.5 °F /  21.4 °C 29.68 in /  1005 hPa North 1.3 mph /  2.1 km/h 3.5 mph /  5.6 km/h 91 % 0.00 in /  0 mm
16:32 73.3 °F /  22.9 °C 70.2 °F /  21.2 °C 29.68 in /  1005 hPa NNE 1.2 mph /  1.9 km/h 3.5 mph /  5.6 km/h 90 % 0.00 in /  0 mm
16:37 73.4 °F /  23 °C 70.3 °F /  21.3 °C 29.68 in /  1005 hPa North 3.8 mph /  6.1 km/h 6.0 mph /  9.7 km/h 90 % 0.00 in /  0 mm
16:42 73.6 °F /  23.1 °C 70.5 °F /  21.4 °C 29.68 in /  1005 hPa NW 2.1 mph /  3.4 km/h 3.5 mph /  5.6 km/h 90 % 0.00 in /  0 mm
16:47 73.9 °F /  23.3 °C 70.5 °F /  21.4 °C 29.68 in /  1005 hPa NNW 1.9 mph /  3.1 km/h 3.5 mph /  5.6 km/h 89 % 0.00 in /  0 mm
16:52 74.1 °F /  23.4 °C 70.3 °F /  21.3 °C 29.69 in /  1005.3 hPa NNW 2.6 mph /  4.2 km/h 4.6 mph /  7.4 km/h 88 % 0.00 in /  0 mm
16:57 74.3 °F /  23.5 °C 70.2 °F /  21.2 °C 29.69 in /  1005.3 hPa NW 0.8 mph /  1.3 km/h 3.5 mph /  5.6 km/h 87 % 0.00 in /  0 mm
17:02 74.5 °F /  23.6 °C 70.4 °F /  21.3 °C 29.68 in /  1005 hPa NE 3.8 mph /  6.1 km/h 4.6 mph /  7.4 km/h 87 % 0.00 in /  0 mm
17:07 74.6 °F /  23.7 °C 69.8 °F /  21 °C 29.68 in /  1005 hPa North 1.5 mph /  2.4 km/h 4.6 mph /  7.4 km/h 85 % 0.00 in /  0 mm
17:12 74.8 °F /  23.8 °C 70.0 °F /  21.1 °C 29.68 in /  1005 hPa North 3.7 mph /  6 km/h 5.8 mph /  9.3 km/h 85 % 0.00 in /  0 mm
17:18 75.0 °F /  23.9 °C 70.2 °F /  21.2 °C 29.68 in /  1005 hPa North 1.9 mph /  3.1 km/h 3.5 mph /  5.6 km/h 85 % 0.00 in /  0 mm
17:23 75.0 °F /  23.9 °C 69.5 °F /  20.8 °C 29.68 in /  1005 hPa NNE 0.7 mph /  1.1 km/h 5.0 mph /  8 km/h 83 % 0.00 in /  0 mm
17:28 75.0 °F /  23.9 °C 69.5 °F /  20.8 °C 29.68 in /  1005 hPa NE 1.4 mph /  2.3 km/h 3.0 mph /  4.8 km/h 83 % 0.00 in /  0 mm
17:33 75.1 °F /  23.9 °C 69.6 °F /  20.9 °C 29.68 in /  1005 hPa NE 0.1 mph /  0.2 km/h 3.5 mph /  5.6 km/h 83 % 0.00 in /  0 mm
17:38 75.2 °F /  24 °C 70.0 °F /  21.1 °C 29.68 in /  1005 hPa NE 0.8 mph /  1.3 km/h 2.3 mph /  3.7 km/h 84 % 0.00 in /  0 mm
17:43 75.2 °F /  24 °C 70.0 °F /  21.1 °C 29.67 in /  1004.6 hPa North 1.5 mph /  2.4 km/h 3.5 mph /  5.6 km/h 84 % 0.00 in /  0 mm
17:48 75.1 °F /  23.9 °C 69.6 °F /  20.9 °C 29.67 in /  1004.6 hPa North 0.6 mph /  1 km/h 2.3 mph /  3.7 km/h 83 % 0.00 in /  0 mm
17:53 75.1 °F /  23.9 °C 69.6 °F /  20.9 °C 29.67 in /  1004.6 hPa NNE 0.9 mph /  1.4 km/h 2.3 mph /  3.7 km/h 83 % 0.00 in /  0 mm
17:58 74.9 °F /  23.8 °C 69.0 °F /  20.6 °C 29.68 in /  1005 hPa NNE 0.2 mph /  0.3 km/h 1.2 mph /  1.9 km/h 82 % 0.00 in /  0 mm
18:03 74.9 °F /  23.8 °C 69.0 °F /  20.6 °C 29.68 in /  1005 hPa NNE 0.6 mph /  1 km/h 2.3 mph /  3.7 km/h 82 % 0.01 in /  0.25 mm
18:08 74.9 °F /  23.8 °C 69.0 °F /  20.6 °C 29.68 in /  1005 hPa NNE 0.6 mph /  1 km/h 2.3 mph /  3.7 km/h 82 % 0.01 in /  0.25 mm
18:13 74.8 °F /  23.8 °C 68.9 °F /  20.5 °C 29.68 in /  1005 hPa Calm   2.3 mph /  3.7 km/h 82 % 0.01 in /  0.25 mm
18:14 74.7 °F /  23.7 °C 68.8 °F /  20.4 °C 29.68 in /  1005 hPa NNE 0.3 mph /  0.5 km/h 2.3 mph /  3.7 km/h 82 % 0.01 in /  0.25 mm
18:19 74.7 °F /  23.7 °C 68.8 °F /  20.4 °C 29.68 in /  1005 hPa NNE 0.8 mph /  1.3 km/h 2.3 mph /  3.7 km/h 82 % 0.01 in /  0.25 mm
18:24 74.7 °F /  23.7 °C 69.2 °F /  20.7 °C 29.68 in /  1005 hPa Calm     83 % 0.01 in /  0.25 mm
18:29 74.6 °F /  23.7 °C 69.1 °F /  20.6 °C 29.68 in /  1005 hPa Calm     83 % 0.01 in /  0.25 mm
18:34 74.5 °F /  23.6 °C 69.0 °F /  20.6 °C 29.68 in /  1005 hPa Calm   1.2 mph /  1.9 km/h 83 % 0.01 in /  0.25 mm
18:39 74.4 °F /  23.6 °C 68.9 °F /  20.5 °C 29.68 in /  1005 hPa Calm     83 % 0.01 in /  0.25 mm
18:44 74.4 °F /  23.6 °C 69.2 °F /  20.7 °C 29.68 in /  1005 hPa Calm     84 % 0.01 in /  0.25 mm
18:49 74.3 °F /  23.5 °C 69.1 °F /  20.6 °C 29.68 in /  1005 hPa Calm     84 % 0.01 in /  0.25 mm
18:54 74.3 °F /  23.5 °C 69.1 °F /  20.6 °C 29.68 in /  1005 hPa Calm     84 % 0.01 in /  0.25 mm
18:59 74.2 °F /  23.4 °C 69.1 °F /  20.6 °C 29.68 in /  1005 hPa Calm     84 % 0.01 in /  0.25 mm
19:04 74.2 °F /  23.4 °C 69.1 °F /  20.6 °C 29.68 in /  1005 hPa NNE 0.3 mph /  0.5 km/h   84 % 0.00 in /  0 mm
19:09 74.2 °F /  23.4 °C 69.1 °F /  20.6 °C 29.68 in /  1005 hPa Calm     84 % 0.00 in /  0 mm
19:14 74.2 °F /  23.4 °C 69.4 °F /  20.8 °C 29.69 in /  1005.3 hPa Calm     85 % 0.00 in /  0 mm
19:19 74.2 °F /  23.4 °C 69.4 °F /  20.8 °C 29.69 in /  1005.3 hPa Calm   2.3 mph /  3.7 km/h 85 % 0.00 in /  0 mm
19:21 74.3 °F /  23.5 °C 69.5 °F /  20.8 °C 29.69 in /  1005.3 hPa NNE 0.1 mph /  0.2 km/h 1.2 mph /  1.9 km/h 85 % 0.00 in /  0 mm
19:26 74.3 °F /  23.5 °C 69.5 °F /  20.8 °C 29.69 in /  1005.3 hPa Calm     85 % 0.00 in /  0 mm
19:31 74.3 °F /  23.5 °C 69.5 °F /  20.8 °C 29.69 in /  1005.3 hPa Calm     85 % 0.00 in /  0 mm
19:36 74.3 °F /  23.5 °C 69.5 °F /  20.8 °C 29.69 in /  1005.3 hPa Calm     85 % 0.00 in /  0 mm
19:41 74.3 °F /  23.5 °C 69.5 °F /  20.8 °C 29.69 in /  1005.3 hPa Calm     85 % 0.00 in /  0 mm
19:46 74.2 °F /  23.4 °C 69.1 °F /  20.6 °C 29.69 in /  1005.3 hPa Calm     84 % 0.00 in /  0 mm
19:51 74.1 °F /  23.4 °C 69.0 °F /  20.6 °C 29.69 in /  1005.3 hPa Calm     84 % 0.00 in /  0 mm
19:56 74.0 °F /  23.3 °C 68.9 °F /  20.5 °C 29.69 in /  1005.3 hPa Calm     84 % 0.00 in /  0 mm
20:01 73.9 °F /  23.3 °C 69.1 °F /  20.6 °C 29.69 in /  1005.3 hPa Calm     85 % 0.00 in /  0 mm
20:02 73.9 °F /  23.3 °C 69.1 °F /  20.6 °C 29.69 in /  1005.3 hPa Calm     85 % 0.00 in /  0 mm
20:05 73.8 °F /  23.2 °C 69.0 °F /  20.6 °C 29.69 in /  1005.3 hPa Calm     85 % 0.00 in /  0 mm
20:07 73.9 °F /  23.3 °C 69.1 °F /  20.6 °C 29.69 in /  1005.3 hPa Calm     85 % 0.00 in /  0 mm
20:10 73.5 °F /  23.1 °C 68.7 °F /  20.4 °C 29.69 in /  1005.3 hPa Calm     85 % 0.00 in /  0 mm
20:15 73.4 °F /  23 °C 69.0 °F /  20.6 °C 29.69 in /  1005.3 hPa Calm     86 % 0.00 in /  0 mm
20:20 73.2 °F /  22.9 °C 68.8 °F /  20.4 °C 29.69 in /  1005.3 hPa Calm     86 % 0.00 in /  0 mm
20:25 73.0 °F /  22.8 °C 68.9 °F /  20.5 °C 29.69 in /  1005.3 hPa Calm     87 % 0.00 in /  0 mm
20:30 72.8 °F /  22.7 °C 68.7 °F /  20.4 °C 29.69 in /  1005.3 hPa Calm     87 % 0.00 in /  0 mm
20:35 72.5 °F /  22.5 °C 68.7 °F /  20.4 °C 29.69 in /  1005.3 hPa Calm     88 % 0.00 in /  0 mm
20:40 72.2 °F /  22.3 °C 68.4 °F /  20.2 °C 29.69 in /  1005.3 hPa Calm     88 % 0.00 in /  0 mm
20:45 72.0 °F /  22.2 °C 68.6 °F /  20.3 °C 29.69 in /  1005.3 hPa Calm     89 % 0.00 in /  0 mm
20:50 71.8 °F /  22.1 °C 68.4 °F /  20.2 °C 29.70 in /  1005.6 hPa Calm     89 % 0.00 in /  0 mm
20:55 71.6 °F /  22 °C 68.2 °F /  20.1 °C 29.70 in /  1005.6 hPa Calm     89 % 0.00 in /  0 mm
21:05 71.3 °F /  21.8 °C 68.2 °F /  20.1 °C 29.70 in /  1005.6 hPa Calm     90 % 0.00 in /  0 mm
21:10 71.2 °F /  21.8 °C 68.1 °F /  20.1 °C 29.70 in /  1005.6 hPa Calm     90 % 0.00 in /  0 mm
21:15 71.1 °F /  21.7 °C 68.0 °F /  20 °C 29.70 in /  1005.6 hPa Calm     90 % 0.00 in /  0 mm
21:20 71.0 °F /  21.7 °C 67.9 °F /  19.9 °C 29.70 in /  1005.6 hPa Calm     90 % 0.00 in /  0 mm
21:25 70.9 °F /  21.6 °C 67.8 °F /  19.9 °C 29.70 in /  1005.6 hPa Calm     90 % 0.00 in /  0 mm
21:30 70.8 °F /  21.6 °C 67.7 °F /  19.8 °C 29.70 in /  1005.6 hPa Calm   1.0 mph /  1.6 km/h 90 % 0.00 in /  0 mm
21:35 70.7 °F /  21.5 °C 67.6 °F /  19.8 °C 29.70 in /  1005.6 hPa Calm   6.0 mph /  9.7 km/h 90 % 0.00 in /  0 mm
21:40 70.6 °F /  21.4 °C 67.5 °F /  19.7 °C 29.70 in /  1005.6 hPa Calm     90 % 0.00 in /  0 mm
21:45 70.6 °F /  21.4 °C 67.5 °F /  19.7 °C 29.70 in /  1005.6 hPa Calm     90 % 0.00 in /  0 mm
21:50 70.5 °F /  21.4 °C 67.7 °F /  19.8 °C 29.70 in /  1005.6 hPa Calm     91 % 0.00 in /  0 mm
21:55 70.5 °F /  21.4 °C 67.7 °F /  19.8 °C 29.69 in /  1005.3 hPa SE 1.0 mph /  1.6 km/h 4.0 mph /  6.4 km/h 91 % 0.00 in /  0 mm
22:05 70.6 °F /  21.4 °C 67.8 °F /  19.9 °C 29.71 in /  1006 hPa Calm   4.0 mph /  6.4 km/h 91 % 0.00 in /  0 mm
22:10 70.6 °F /  21.4 °C 67.8 °F /  19.9 °C 29.71 in /  1006 hPa Calm     91 % 0.00 in /  0 mm
22:15 70.7 °F /  21.5 °C 67.9 °F /  19.9 °C 29.71 in /  1006 hPa Calm     91 % 0.00 in /  0 mm
22:20 70.8 °F /  21.6 °C 68.4 °F /  20.2 °C 29.71 in /  1006 hPa Calm     92 % 0.00 in /  0 mm
22:25 70.8 °F /  21.6 °C 68.4 °F /  20.2 °C 29.70 in /  1005.6 hPa Calm     92 % 0.00 in /  0 mm
22:30 70.9 °F /  21.6 °C 68.5 °F /  20.3 °C 29.71 in /  1006 hPa Calm     92 % 0.00 in /  0 mm
22:35 70.9 °F /  21.6 °C 68.5 °F /  20.3 °C 29.70 in /  1005.6 hPa Calm     92 % 0.00 in /  0 mm
22:40 71.0 °F /  21.7 °C 68.6 °F /  20.3 °C 29.70 in /  1005.6 hPa Calm     92 % 0.00 in /  0 mm
22:45 71.0 °F /  21.7 °C 68.6 °F /  20.3 °C 29.70 in /  1005.6 hPa Calm     92 % 0.00 in /  0 mm
22:50 71.0 °F /  21.7 °C 68.6 °F /  20.3 °C 29.71 in /  1006 hPa Calm     92 % 0.00 in /  0 mm
22:55 71.0 °F /  21.7 °C 68.6 °F /  20.3 °C 29.71 in /  1006 hPa Calm     92 % 0.00 in /  0 mm
23:05 71.0 °F /  21.7 °C 68.6 °F /  20.3 °C 29.70 in /  1005.6 hPa Calm     92 % 0.00 in /  0 mm
23:10 71.0 °F /  21.7 °C 68.6 °F /  20.3 °C 29.70 in /  1005.6 hPa Calm     92 % 0.00 in /  0 mm
23:15 71.0 °F /  21.7 °C 68.6 °F /  20.3 °C 29.70 in /  1005.6 hPa Calm     92 % 0.00 in /  0 mm
23:20 71.0 °F /  21.7 °C 68.6 °F /  20.3 °C 29.70 in /  1005.6 hPa Calm     92 % 0.00 in /  0 mm
23:25 71.0 °F /  21.7 °C 68.6 °F /  20.3 °C 29.70 in /  1005.6 hPa Calm     92 % 0.00 in /  0 mm
23:30 71.0 °F /  21.7 °C 68.6 °F /  20.3 °C 29.70 in /  1005.6 hPa Calm     92 % 0.00 in /  0 mm
23:35 71.0 °F /  21.7 °C 68.9 °F /  20.5 °C 29.70 in /  1005.6 hPa Calm     93 % 0.00 in /  0 mm
23:40 71.0 °F /  21.7 °C 68.9 °F /  20.5 °C 29.70 in /  1005.6 hPa Calm     93 % 0.00 in /  0 mm
23:45 71.1 °F /  21.7 °C 69.0 °F /  20.6 °C 29.71 in /  1006 hPa SSE 3.0 mph /  4.8 km/h 6.0 mph /  9.7 km/h 93 % 0.00 in /  0 mm
23:50 71.2 °F /  21.8 °C 69.1 °F /  20.6 °C 29.71 in /  1006 hPa SW 3.0 mph /  4.8 km/h 7.0 mph /  11.3 km/h 93 % 0.00 in /  0 mm
23:55 71.2 °F /  21.8 °C 69.1 °F /  20.6 °C 29.71 in /  1006 hPa WSW 1.0 mph /  1.6 km/h 6.0 mph /  9.7 km/h 93 % 0.00 in /  0 mm
Crab Meadow Weather
Compliments of Weather Underground - 3 mb

Script developed by  Jim McMurry - jmcmurry@mwt.net Adapted for the template by  Wim van der Kuil - Leuven-Template.eu

Clouds: Mostly Cloudy or Considerable Cloudiness indicate about 75 percent cloud coverage.